Change the Weather History Date:

Thursday, July 26, 2012

  Actual Average Record
Temperature  
Mean Temperature 79 °F -  
Max Temperature 89 °F 79 °F 91 °F (2005)
Min Temperature 69 °F 66 °F 60 °F (2002)
Cooling Degree Days 14    
Growing Degree Days 29 (Base 50)    
Moisture  
Dew Point 70 °F    
Average Humidity 70    
Maximum Humidity 84    
Minimum Humidity 59    
Precipitation  
Precipitation 0.00 in - - ()
Sea Level Pressure  
Sea Level Pressure 29.79 in    
Wind  
Wind Speed 10 mph (SSW)    
Max Wind Speed 17 mph    
Max Gust Speed 24 mph    
Visibility 10 miles    
Events      
Averages and records for this station are not official NWS values.
T = Trace of Precipitation, MM = Missing Value Source: NWS Daily Summary

Daily Weather History Graph

Daily Weather History Graph

Search for Another Location

Airport or City:

Trip Planner

Search our weather history database for the weather conditions in past years. The results will help you decide how hot, cold, wet, or windy it might be!

Date:

Astronomy

Jul. 26, 2012 Rise Set
Actual Time 5:55 AM EDT 8:16 PM EDT
Civil Twilight 5:25 AM EDT 8:46 PM EDT
Nautical Twilight 4:47 AM EDT 9:23 PM EDT
Astronomical Twilight 4:06 AM EDT 10:04 PM EDT
Moon 2:01 PM EDT (7/26) No Moon Set
Length of Visible Light 15h 21m
Length of Day
14h 20m
First Quarter, 53% of the Moon is Illuminated
Jul 26
First Quarter
Aug 1
Full
Aug 9
Last Quarter
Aug 17
New
Aug 24
First Quarter

Hourly Weather History & Observations

Time (EDT) Temp. Heat Index Dew Point Humidity Pressure Visibility Wind Dir Wind Speed Gust Speed Precip Events Conditions
12:15 AM 69.8 °F - 62.6 °F 78% 29.88 in 10.0 mi SSW 6.9 mph - N/A   Clear
12:35 AM 69.8 °F - 60.8 °F 73% 29.88 in 10.0 mi SSW 6.9 mph - N/A   Clear
12:55 AM 69.8 °F - 60.8 °F 73% 29.88 in 10.0 mi SW 8.1 mph - N/A   Clear
1:15 AM 71.6 °F - 60.8 °F 69% 29.87 in 10.0 mi SW 9.2 mph - N/A   Clear
1:35 AM 71.6 °F - 60.8 °F 69% 29.87 in 10.0 mi SSW 10.4 mph - N/A   Clear
1:55 AM 71.6 °F - 60.8 °F 69% 29.87 in 10.0 mi SSW 6.9 mph - N/A   Clear
2:15 AM 71.6 °F - 60.8 °F 69% 29.86 in 10.0 mi SSW 10.4 mph - N/A   Clear
2:35 AM 71.6 °F - 60.8 °F 69% 29.85 in 10.0 mi SSW 8.1 mph - N/A   Clear
2:55 AM 71.6 °F - 59.0 °F 64% 29.85 in 10.0 mi SSW 10.4 mph - N/A   Clear
3:15 AM 71.6 °F - 60.8 °F 69% 29.84 in 10.0 mi SSW 9.2 mph - N/A   Clear
3:35 AM 71.6 °F - 60.8 °F 69% 29.84 in 10.0 mi SSW 10.4 mph - N/A   Clear
3:55 AM 71.6 °F - 62.6 °F 73% 29.83 in 10.0 mi SSW 11.5 mph - N/A   Clear
4:15 AM 71.6 °F - 62.6 °F 73% 29.82 in 10.0 mi South 10.4 mph - N/A   Scattered Clouds
4:35 AM 71.6 °F - 64.4 °F 78% 29.82 in 10.0 mi South 10.4 mph - N/A   Overcast
4:55 AM 71.6 °F - 64.4 °F 78% 29.82 in 10.0 mi SSW 10.4 mph - N/A   Scattered Clouds
5:15 AM 73.4 °F - 64.4 °F 73% 29.83 in 10.0 mi SSW 10.4 mph 19.6 mph N/A   Scattered Clouds
5:35 AM 71.6 °F - 64.4 °F 78% 29.83 in 10.0 mi SSW 10.4 mph - N/A   Partly Cloudy
5:55 AM 73.4 °F - 64.4 °F 73% 29.82 in 10.0 mi South 12.7 mph - N/A   Clear
6:15 AM 73.4 °F - 66.2 °F 78% 29.82 in 10.0 mi SSW 11.5 mph - N/A   Scattered Clouds
6:35 AM 73.4 °F - 66.2 °F 78% 29.82 in 10.0 mi SSW 12.7 mph - N/A   Scattered Clouds
6:55 AM 73.4 °F - 66.2 °F 78% 29.82 in 10.0 mi South 15.0 mph - N/A   Scattered Clouds
7:15 AM 75.2 °F - 66.2 °F 73% 29.81 in 10.0 mi SSW 15.0 mph 21.9 mph N/A   Clear
7:35 AM 75.2 °F - 68.0 °F 78% 29.82 in 10.0 mi South 15.0 mph - N/A   Clear
7:55 AM 77.0 °F - 69.8 °F 78% 29.83 in 10.0 mi SSW 12.7 mph 23.0 mph N/A   Clear
8:15 AM 78.8 °F - 69.8 °F 74% 29.83 in 10.0 mi South 15.0 mph 19.6 mph N/A   Clear
8:35 AM 78.8 °F - 69.8 °F 74% 29.82 in 10.0 mi SSW 15.0 mph - N/A   Clear
8:55 AM 80.6 °F 83.9 °F 69.8 °F 70% 29.81 in 10.0 mi SW 17.3 mph 21.9 mph N/A   Clear
9:15 AM 80.6 °F 84.6 °F 71.6 °F 74% 29.81 in 10.0 mi SW 16.1 mph 20.7 mph N/A   Clear
9:35 AM 82.4 °F 87.2 °F 71.6 °F 70% 29.82 in 10.0 mi SW 16.1 mph 24.2 mph N/A   Clear
9:55 AM 80.6 °F 84.6 °F 71.6 °F 74% 29.82 in - SSW 17.3 mph 23.0 mph N/A   Mostly Cloudy
10:15 AM 82.4 °F 87.2 °F 71.6 °F 70% 29.81 in - SSW 12.7 mph 20.7 mph N/A   Scattered Clouds
10:35 AM 82.4 °F 87.2 °F 71.6 °F 70% 29.81 in - SW 12.7 mph - N/A   Clear
10:55 AM 82.4 °F 87.2 °F 71.6 °F 70% 29.81 in - SW 11.5 mph 17.3 mph N/A   Mostly Cloudy
11:15 AM 84.2 °F 90.9 °F 73.4 °F 70% 29.80 in - SSW 13.8 mph 17.3 mph N/A   Mostly Cloudy
11:35 AM 86.0 °F 93.4 °F 73.4 °F 66% 29.77 in - SSW 13.8 mph - N/A   Clear
11:55 AM 87.8 °F 95.6 °F 73.4 °F 62% 29.80 in - WSW 16.1 mph - N/A   Clear
12:15 PM 87.8 °F 95.6 °F 73.4 °F 62% 29.79 in - SSW 12.7 mph - N/A   Clear
12:35 PM 87.8 °F 95.6 °F 73.4 °F 62% 29.78 in - SSW 9.2 mph - N/A   Clear
12:55 PM 87.8 °F 95.6 °F 73.4 °F 62% 29.78 in - South 11.5 mph - N/A   Clear
1:15 PM 87.8 °F 97.6 °F 75.2 °F 66% 29.78 in - South 10.4 mph - N/A   Clear
1:35 PM 87.8 °F 97.6 °F 75.2 °F 66% 29.77 in - South 11.5 mph - N/A   Clear
1:55 PM 89.6 °F 99.8 °F 75.2 °F 62% 29.77 in - South 13.8 mph - N/A   Clear
2:15 PM 87.8 °F 95.6 °F 73.4 °F 62% 29.76 in - South 11.5 mph - N/A   Clear
2:35 PM 89.6 °F 99.8 °F 75.2 °F 62% 29.75 in - South 11.5 mph - N/A   Clear
2:55 PM 87.8 °F 97.6 °F 75.2 °F 66% 29.75 in - South 11.5 mph - N/A   Clear
3:15 PM 87.8 °F 95.6 °F 73.4 °F 62% 29.74 in - South 11.5 mph - N/A   Clear
3:35 PM 89.6 °F 98.2 °F 73.4 °F 59% 29.74 in - SSW 10.4 mph - N/A   Clear
3:55 PM 89.6 °F 98.2 °F 73.4 °F 59% 29.73 in - South 11.5 mph - N/A   Clear
4:15 PM 87.8 °F 97.6 °F 75.2 °F 66% 29.73 in - South 11.5 mph - N/A   Clear
4:35 PM 89.6 °F 99.8 °F 75.2 °F 62% 29.71 in - SSW 12.7 mph - N/A   Clear
4:55 PM 89.6 °F 99.8 °F 75.2 °F 62% 29.71 in - South 9.2 mph - N/A   Clear
5:15 PM 87.8 °F 97.6 °F 75.2 °F 66% 29.71 in - South 13.8 mph - N/A   Clear
5:35 PM 87.8 °F 97.6 °F 75.2 °F 66% 29.72 in - South 9.2 mph - N/A   Clear
5:55 PM 87.8 °F 97.6 °F 75.2 °F 66% 29.72 in - SSW 11.5 mph - N/A   Clear
6:15 PM 87.8 °F 97.6 °F 75.2 °F 66% 29.72 in - South 11.5 mph - N/A   Clear
6:35 PM 87.8 °F 97.6 °F 75.2 °F 66% 29.72 in - South 11.5 mph 16.1 mph N/A   Clear
6:55 PM 87.8 °F 97.6 °F 75.2 °F 66% 29.72 in - SSW 9.2 mph - N/A   Clear
7:15 PM 87.8 °F 97.6 °F 75.2 °F 66% 29.71 in - South 10.4 mph - N/A   Clear
7:35 PM 86.0 °F 95.1 °F 75.2 °F 70% 29.71 in - South 10.4 mph - N/A   Clear
7:55 PM 84.2 °F 92.3 °F 75.2 °F 74% 29.73 in - South 8.1 mph - N/A   Clear
8:15 PM 82.4 °F 88.2 °F 73.4 °F 74% 29.73 in - South 9.2 mph - N/A   Clear
8:35 PM 82.4 °F 88.2 °F 73.4 °F 74% 29.73 in - South 6.9 mph - N/A   Clear
8:55 PM 80.6 °F 85.4 °F 73.4 °F 79% 29.74 in 10.0 mi South 6.9 mph - N/A   Clear
9:15 PM 80.6 °F 85.4 °F 73.4 °F 79% 29.74 in 10.0 mi South 9.2 mph - N/A   Clear
9:35 PM 80.6 °F 86.2 °F 75.2 °F 84% 29.76 in 10.0 mi South 8.1 mph - N/A   Clear
9:55 PM 80.6 °F 86.2 °F 75.2 °F 84% 29.75 in 10.0 mi South 6.9 mph - N/A   Clear
10:15 PM 80.6 °F 85.4 °F 73.4 °F 79% 29.77 in 10.0 mi North 12.7 mph 16.1 mph N/A   Scattered Clouds
10:35 PM 82.4 °F 87.2 °F 71.6 °F 70% 29.78 in - NNE 8.1 mph - N/A   Scattered Clouds
10:55 PM 80.6 °F 84.6 °F 71.6 °F 74% 29.77 in - ENE 3.5 mph - N/A   Mostly Cloudy
11:15 PM 80.6 °F 83.9 °F 69.8 °F 70% 29.76 in 10.0 mi NNE 6.9 mph - N/A   Partly Cloudy
11:35 PM 78.8 °F - 68.0 °F 69% 29.77 in 10.0 mi NNE 3.5 mph - N/A   Clear
11:55 PM 78.8 °F - 68.0 °F 69% 29.82 in 10.0 mi NW 8.1 mph - N/A   Scattered Clouds